Location: Misciano
(43.5000°N, 11.9500°E)
Time: 21:17:35
(UTC+00:00)

Cosmos 1066 Rocket - Pass Details

Date: 13 August 2020
Orbit: 798 x 895 km, 81.2° (Epoch: 22 September)

Event Time Altitude Azimuth Distance (km) Brightness Sun altitude
Rises 21:40:09 0° 350° (N) 3,455 8.5 -28.1°
Reaches altitude 10° 21:42:38 10° 352° (N) 2,500 7.5 -28.3°
Enters shadow 21:47:56 75° 33° (NNE) 875 4.2 -28.7°
